Flag for U.S.A. Weather past 2 weeks in Denver, Colorado, U.S.A.

Now
65 °F

Passing clouds.


Feels Like: 65 °F
Forecast: 60 / 84 °F
Wind: 5 mph from Southwest

Location: Buckley Air Force Base

Current Time: Sep 5, 2015 at 7:15:45 AM

Latest Report: Sep 5, 2015 at 6:58 AM


Visibility: 10 mi

Pressure: 29.79 "Hg (24.71 "Hg at 1593m altitude)

Humidity: 57%

Dew point: 49 °F

Location of DenverLocation

Historic Weather in Denver — Graph

°F

Denver temperature yesterday

Maximum temperature yesterday: 85 °F (at 3:58 PM)
Minimum temperature yesterday: 56 °F (at 2:58 AM)
Average temperature yesterday: 70 °F

Past Weeks' High & Low Weather Summary

 TemperatureHumidityPressure
High94 °F (Aug 25, 3:58 PM)100% (Aug 28, 5:58 AM)30.21 "Hg (Aug 28, 5:58 AM)
Low45 °F (Aug 23, 5:58 AM)11% (Aug 21, 12:58 PM)29.65 "Hg (Aug 21, 4:58 PM)
Average72 °F41%29.92 "Hg
* Reported Aug 21 5:58 AM — Sep 5 5:58 AM, Denver, Weather by CustomWeather, © 2015

Note: Actual official high and low records may vary slightly from our data, if they occured in-between our weather recording intervals... More about our weather records

Advertising

Denver weather history for previous 24 hours

 ConditionsComfort  
Time TempWeatherWind HumidityBarometerVisibility
5:58 AM
Sat, Sep 5
65 °FPassing clouds.8 mph56%29.75 "Hg10 mi
4:58 AM65 °FPassing clouds.8 mph56%29.73 "Hg10 mi
3:58 AM67 °FPassing clouds.10 mph51%29.72 "Hg10 mi
2:58 AM67 °FOvercast.6 mph51%29.72 "Hg10 mi
1:58 AM65 °FPassing clouds.8 mph60%29.73 "Hg10 mi
12:58 AM66 °FPartly cloudy.2 mph60%29.74 "Hg10 mi
11:58 PM
Fri, Sep 4
69 °FMostly cloudy.10 mph59%29.75 "Hg10 mi
10:58 PM70 °FMostly cloudy.6 mph52%29.76 "Hg10 mi
9:58 PM69 °FPassing clouds.8 mph55%29.78 "Hg10 mi
8:58 PM70 °FPassing clouds.No wind52%29.79 "Hg10 mi
7:58 PM72 °FPartly sunny.2 mph39%29.80 "Hg10 mi
6:58 PM75 °FPartly sunny.8 mph35%29.78 "Hg10 mi
5:58 PM79 °FPartly sunny.12 mph28%29.78 "Hg10 mi
4:58 PM83 °FBroken clouds.8 mph23%29.74 "Hg10 mi
3:58 PM85 °FBroken clouds.10 mph16%29.75 "Hg10 mi
2:58 PM85 °FBroken clouds.14 mph23%29.77 "Hg10 mi
1:58 PM84 °FBroken clouds.10 mph23%29.77 "Hg10 mi
12:58 PM85 °FBroken clouds.9 mph22%29.80 "Hg10 mi
11:58 AM84 °FBroken clouds.7 mph22%29.82 "Hg10 mi
10:58 AM78 °FBroken clouds.1 mph26%29.85 "Hg10 mi
9:58 AM74 °FBroken clouds.6 mph38%29.86 "Hg10 mi
8:58 AM68 °FScattered clouds.12 mph51%29.87 "Hg10 mi
7:58 AM60 °FScattered clouds.10 mph68%29.87 "Hg10 mi
Weather by CustomWeather, © 2015

See weather overviewHow to use our weather pages